Location: Rolvenden
(51.0333°N, 0.6333°E)
Time: 14:03:38
(UTC+00:00)

Daily predictions for brighter satellites

Satellite Brightness Start Highest point End
(mag) Time Altitude Azimuth Time Altitude Azimuth Time Altitude Azimuth
BREEZE M DEB (TANK) 4.0 20:00:18 10° SW 20:03:58 59° SSE 20:15:34 10° ENE
Cosmos 1833 Rocket 4.0 20:03:08 10° NNW 20:08:03 29° NE 20:12:57 10° ESE
IGS 5A 3.7 20:05:39 10° SSE 20:09:42 54° ENE 20:13:47 10° N
Cosmos 2221 3.3 20:07:42 10° SSW 20:11:57 58° WNW 20:16:16 10° N
BREEZE-M R/B 3.3 20:10:29 10° SSW 20:12:23 18° SSE 20:14:11 10° ESE
S3M 4.2 20:06:38 10° SSE 20:12:50 57° E 20:19:01 10° NNE
USA 186 4.1 20:12:33 10° SW 20:14:18 16° W 20:15:58 10° NW
Cosmos 1666 Rocket 4.2 20:11:15 10° N 20:15:27 40° ENE 20:19:34 10° SE
USA 215 4.0 20:13:49 10° ENE 20:20:08 54° N 20:26:27 10° WNW
USA 305 3.5 20:18:44 10° WNW 20:22:57 58° N 20:27:11 10° E
Cosmos 1933 3.7 20:19:16 10° SSE 20:23:07 44° E 20:26:59 10° NNE
USA 245 3.4 20:23:41 12° ESE 20:25:23 23° ENE 20:27:17 10° NNE
Cosmos 1242 Rocket 3.1 20:25:15 10° SSE 20:28:36 38° E 20:31:56 10° NNE
OBJECT-B 3.2 20:26:20 10° SSW 20:28:57 22° W 20:31:35 10° NW
Cosmos 1553 Rocket 4.2 20:25:19 10° SSW 20:31:27 81° W 20:37:44 10° N
BREEZE M DEB (TANK) 2.2 20:25:16 10° W 20:31:38 73° S 20:34:06 10° E
Cosmos 1437 Rocket 2.8 20:28:40 10° SSW 20:32:32 86° WNW 20:36:32 10° NNE
Resurs 01 Rocket 1.8 20:30:52 10° S 20:35:19 76° WSW 20:39:48 10° NNW
Sich 1 3.1 20:33:30 10° NNW 20:37:50 80° W 20:42:11 10° S
COSMOS 2406 3.9 20:33:19 10° NNW 20:38:43 42° NE 20:43:43 12° ESE
Spot 2 Rocket 3.8 20:34:12 11° SE 20:38:58 53° ENE 20:43:53 10° N
SJ 16-02 3.4 20:38:33 10° ESE 20:39:31 11° E 20:40:29 10° E
Meteor 1-20 Rocket 4.3 20:35:10 10° NNW 20:40:52 85° W 20:46:24 10° S
Cosmos 2082 Rocket 3.6 20:36:26 10° NNW 20:41:17 28° NE 20:46:05 10° ESE
USA 306 3.3 20:37:54 10° WNW 20:42:08 62° N 20:46:23 10° E
CZ-4C R/B 3.1 20:36:51 10° NW 20:43:42 66° NE 20:51:18 12° ESE
Cosmos 1500 3.9 20:40:57 10° N 20:44:29 37° ENE 20:47:10 15° SE
Gbstr 26 Del rocket 4.3 20:37:53 10° WSW 20:45:51 88° SSE 20:52:40 10° ENE
Cosmos 1782 3.2 20:43:22 10° SSE 20:47:11 45° E 20:51:01 10° NNE
ERS-1 Rocket 3.4 20:50:52 14° SE 20:54:54 49° ENE 20:59:46 10° N
SPOT 5 3.4 20:52:52 15° SE 20:56:54 51° ENE 21:02:00 10° N
Cosmos 1503 Rocket 3.9 20:51:50 10° SSW 20:56:58 69° ESE 21:02:10 10° NNE
ERBS 4.3 20:55:26 10° WNW 20:58:22 29° N 21:01:20 10° ENE
Intercosmos 24 4.1 20:55:37 10° SSW 20:59:19 63° WNW 21:02:54 10° N
SOZ 4.1 20:57:04 10° WSW 20:59:38 66° SSE 21:01:56 10° ENE
USA 290 3.4 20:57:12 10° NW 21:00:15 38° WSW 21:02:58 12° S
Cosmos 1151 Rocket 3.0 20:58:18 10° S 21:02:37 67° E 21:06:59 10° NNE
CREW DRAGON DEMO-1 DEB 2.4 21:00:09 10° W 21:02:49 80° N 21:04:38 18° E
Cosmos 1602 3.9 20:59:03 10° NNW 21:02:55 73° W 21:06:20 13° S
Terra 2.5 21:02:23 17° SE 21:05:43 42° ENE 21:10:12 10° N
USA 307 3.1 21:03:14 10° WNW 21:07:30 69° NNE 21:11:25 12° E
Cosmos 2278 Rocket 3.1 21:05:44 16° SSE 21:09:13 29° ESE 21:14:01 10° NE
CZ-2C R/B 3.7 21:07:02 10° NNE 21:11:31 84° WNW 21:16:02 10° SSW
SL-4 R/B 4.5 21:16:10 10° WSW 21:18:33 14° SW 21:21:00 10° SSW
X-37B 2.0 21:17:13 10° WSW 21:19:48 22° SSW 21:20:09 22° S
Cosmos 1515 Rocket 3.9 21:17:35 20° SSE 21:20:22 48° E 21:24:37 10° NNE
USA 308 3.0 21:16:43 10° WNW 21:21:02 76° NNE 21:24:24 16° ESE
SWARM C 4.4 21:17:45 10° N 21:21:05 77° E 21:22:52 25° S
SWARM A 4.1 21:17:52 10° N 21:21:12 79° E 21:23:01 25° S
Cosmos 1844 Rocket 3.4 21:15:51 10° SW 21:21:19 56° NW 21:26:51 10° NNE
Cosmos 2084 3.9 21:17:53 11° S 21:21:32 36° SE 21:25:26 10° ENE
SPOT 1/Viking Rocket 4.1 21:16:47 11° S 21:21:39 57° W 21:26:47 10° NNW
Cosmos 1536 4.4 21:18:41 10° NNE 21:22:01 24° ENE 21:23:48 18° ESE
ARIANE 5 R/B 2.8 21:20:39 17° S 21:23:56 69° WSW 21:28:17 10° NNW
JB-3 4.2 21:21:15 10° NNE 21:25:12 71° ESE 21:27:55 19° S
Cosmos 1437 2.2 21:25:47 27° S 21:27:09 82° ESE 21:30:01 10° NNE
Cosmos 1633 Rocket 3.8 21:23:24 10° NNW 21:27:40 50° W 21:31:23 13° SSW
Cosmos 1354 Rocket 4.1 21:23:03 10° SSW 21:28:17 81° WNW 21:33:35 10° NNE
Cosmos 1812 2.7 21:31:31 24° S 21:33:41 66° E 21:37:33 10° NNE
Cosmos 1470 Rocket 3.8 21:32:29 10° NNW 21:36:58 69° W 21:39:57 21° S
Cosmos 2184 Rocket 4.0 21:31:00 10° N 21:37:16 71° ENE 21:41:19 23° SSE
Meteor 1-5 Rocket 4.1 21:33:00 10° NNW 21:38:29 86° W 21:42:00 22° S
Cosmos 1328 Rocket 3.9 21:36:50 10° SSW 21:41:09 65° WNW 21:45:34 10° N
NOSS 3-4 (A) 3.9 21:34:41 10° NW 21:41:31 75° NE 21:47:03 20° SE
NOSS 3-4 (C) 3.9 21:34:47 10° NW 21:41:37 75° NE 21:47:10 20° SE
ATLAS 5 CENTAUR R/B 3.3 21:37:57 10° WNW 21:43:03 36° WSW 21:47:13 18° S
Cosmos 2074 Rocket 4.0 21:38:54 10° N 21:45:15 82° E 21:49:22 23° SSE
CARTOSAT-1 4.4 21:44:07 18° SSW 21:47:06 45° W 21:51:16 10° NNW
Cosmos 1666 2.6 21:46:54 10° NNW 21:50:39 79° W 21:52:12 34° S
Cosmos 1933 Rocket 3.6 21:47:11 10° NNW 21:51:32 73° W 21:53:49 27° S
NOSS 3-3 (A) 3.9 21:46:36 10° SW 21:52:25 79° SE 21:59:10 10° NE
Cosmos 1833 Rocket 2.8 21:46:50 10° NNW 21:52:29 69° WSW 21:55:42 26° SSE
NOSS 3-3 (C) 3.9 21:46:43 10° SW 21:52:33 78° SE 21:59:17 10° NE
ATLAS 2AS CENTAUR R/B 3.2 21:47:38 10° NW 21:55:08 62° NE 22:00:32 18° ESE
Nadezhda 1 Rocket 4.3 21:51:52 25° SSE 21:55:26 53° E 22:01:30 10° NNE
Meteor 2-12 Rocket 4.4 21:49:28 10° N 21:55:35 73° ENE 21:59:02 27° SSE
Cosmos 1743 4.0 21:52:27 10° N 21:55:47 27° ENE 21:56:52 24° E
BREEZE-M DEB (TANK) 2.5 21:56:46 10° W 21:57:57 28° WSW 21:57:57 28° WSW
Cosmos 1538 Rocket 4.2 21:55:46 10° NNW 22:01:07 66° WSW 22:03:56 28° S
BREEZE-M DEB (TANK) 3.3 21:52:57 10° W 22:01:56 81° N 22:04:40 11° ENE
USA 215 3.6 21:56:17 10° E 22:02:44 64° NNE 22:09:10 10° WNW
USA 305 2.8 21:58:47 10° WNW 22:03:03 73° SSW 22:04:41 37° SE
Iridium 4 Rocket 3.9 22:01:47 20° S 22:05:49 77° W 22:11:47 10° N
Cosmos 1610 Rocket 4.4 22:01:07 10° N 22:07:19 78° E 22:10:38 29° SSE
Cosmos 158 Rocket 3.8 22:08:32 10° NNW 22:13:26 79° WSW 22:15:28 36° SSE
Cosmos 1733 Rocket 4.1 22:10:46 10° N 22:14:43 33° ENE 22:16:02 27° ESE
SJ 16-02 1.2 22:15:14 32° SSW 22:17:17 81° ESE 22:21:45 10° NNE
Cosmos 1680 Rocket 3.6 22:13:45 10° NNW 22:19:05 69° ENE 22:21:27 33° SE
Cosmos 2228 Rocket 3.0 22:17:34 37° S 22:19:17 82° E 22:23:46 10° NNE
Cosmos 2341 Rocket 4.3 22:13:40 10° N 22:19:58 56° ENE 22:23:08 29° SE
Meteor 1-27 Rocket 3.8 22:18:37 30° S 22:21:34 71° E 22:27:29 10° NNE
USA 306 3.0 22:17:56 10° WNW 22:22:09 59° SSW 22:23:05 46° SSE
COSMOS 2406 4.0 22:17:44 10° NW 22:23:03 42° WSW 22:25:47 25° SSW
Cosmos 1818 4.4 22:18:39 10° NW 22:23:58 47° NE 22:27:40 19° ESE
Cosmos 2082 Rocket 2.2 22:20:17 10° NNW 22:25:54 71° WSW 22:28:19 35° S
H-2A R/B 4.2 22:27:46 10° N 22:31:52 52° WNW 22:34:17 23° SW
CZ-4C R/B 3.6 22:25:30 10° NW 22:32:19 45° WSW 22:36:28 26° S
Gbstr 26 Del rocket 4.1 22:25:53 10° W 22:33:27 87° N 22:39:40 10° E
BREEZE-M R/B 4.3 22:31:26 10° W 22:31:52 14° W 22:31:52 14° W
ERBS 3.8 22:31:59 10° NW 22:35:05 35° NNE 22:37:04 18° ENE
Cosmos 1271 Rocket 3.5 22:35:27 28° SW 22:37:16 50° WNW 22:41:13 10° N
Cosmos 2218 Rocket 4.4 22:33:05 10° N 22:39:12 52° ENE 22:42:06 30° SE
Meteor 1-11 Rocket 4.4 22:36:24 10° NNW 22:42:12 53° W 22:45:14 27° SSW
Terra 3.3 22:41:15 19° SW 22:43:35 29° W 22:47:45 10° NNW
Okean 1 3.8 22:46:34 41° ESE 22:46:51 42° E 22:50:38 10° NNE
USA 307 3.3 22:43:19 10° WNW 22:47:25 45° SW 22:47:30 45° SSW
Cosmos 1340 Rocket 2.9 22:44:48 10° NNW 22:48:53 73° W 22:49:40 55° SSW
Cosmos 2278 Rocket 2.7 22:47:29 10° SW 22:52:59 58° NW 22:58:36 10° NNE
Cosmos 923 Rocket 4.4 22:49:03 10° NNW 22:54:09 53° WSW 22:55:53 37° SSW
Cosmos 1544 3.4 22:51:20 10° NNW 22:54:51 51° W 22:55:12 48° WSW
Spot 4 3.8 22:53:27 46° SSE 22:54:57 87° WSW 22:59:51 10° NNW
Cosmos 1515 3.7 22:55:28 59° ESE 22:55:36 60° E 22:59:21 10° NNE
Cosmos 1862 Rocket 3.8 22:57:00 46° ESE 22:57:34 49° E 23:01:45 10° NNE
Cosmos 1536 3.8 22:54:47 10° NNW 22:58:33 37° W 22:59:30 32° SW
Cosmos 1898 Rocket 3.5 22:57:39 44° S 22:59:13 64° ESE 23:04:31 10° NNE
USA 308 3.6 22:56:51 10° WNW 23:00:29 37° SW 23:00:29 37° SW
Cosmos 2369 Rocket 3.4 23:03:27 24° ESE 23:04:08 25° ESE 23:08:37 10° NE
RESURS DK-1 4.3 23:03:56 10° NNW 23:07:26 25° NE 23:09:52 15° E
Gblst 52 Del rocket 4.4 23:01:03 10° W 23:08:05 88° S 23:14:10 10° ESE
Meteor 2-9 Rocket 4.2 23:02:37 10° N 23:08:30 81° ENE 23:10:35 42° SSE
COBE Rocket 4.2 23:07:04 39° SE 23:08:44 60° ENE 23:13:48 10° N
SL-8 Rocket 4.0 23:02:34 10° N 23:08:57 88° W 23:11:34 39° S
Cosmos 1975 2.9 23:07:47 10° N 23:11:46 62° ENE 23:12:12 57° ESE
Cosmos 2084 Rocket 3.4 23:08:03 10° NW 23:12:19 81° NE 23:13:20 52° ESE
Cosmos 1943 Rocket 2.5 23:11:55 42° SSE 23:13:12 50° ESE 23:18:35 10° NE
SAR-Lupe-2 4.2 23:11:19 10° NNE 23:14:31 44° E 23:14:31 44° E
ALOS 2 2.5 23:16:04 58° SSE 23:16:55 89° ENE 23:21:21 10° NNW
Cosmos 44 3.5 23:14:00 10° NW 23:19:26 67° SW 23:20:48 48° S
DNEPR-1 R/B 4.4 23:19:56 43° SSE 23:20:49 47° SE 23:25:36 10° NE
Cosmos 1707 Rocket 4.0 23:20:01 41° SW 23:21:14 56° WNW 23:25:34 10° N
Meteor 2-4 Rocket 4.2 23:20:31 37° SE 23:22:13 48° E 23:27:38 10° NNE
Cosmos 990 Rocket 4.1 23:20:01 35° SW 23:22:16 73° WNW 23:27:34 10° NNE
Okean 1-7 3.8 23:30:15 36° ESE 23:30:38 37° E 23:34:36 10° NNE
Cosmos 372 Rocket 4.2 23:30:37 45° SE 23:31:28 51° ESE 23:36:24 10° NNE
Cosmos 1743 4.0 23:28:11 10° NNW 23:31:31 29° W 23:31:55 28° WSW
Cosmos 1238 Rocket 4.2 23:28:14 10° NNW 23:34:31 57° W 23:36:39 37° SSW
Meteor 1-18 Rocket 4.1 23:33:04 44° S 23:34:58 86° E 23:40:36 10° NNE
SL-24 R/B - RUBIN 2 4.2 23:31:27 10° NW 23:36:45 48° WSW 23:37:29 45° SSW
SeaSat 1 3.1 23:33:13 10° NE 23:37:49 38° ESE 23:38:19 37° SE
Cosmos 2242 Rocket 3.8 23:40:22 49° ESE 23:40:56 53° E 23:45:17 10° NNE
USA 215 3.2 23:42:20 30° SE 23:45:45 69° SW 23:52:18 10° WNW
ATLAS 2AS CENTAUR R/B 3.2 23:39:02 10° NW 23:45:54 44° WSW 23:47:56 35° SSW
Cosmos 2297 3.8 23:45:51 35° SW 23:48:23 76° WNW 23:54:06 10° NNE
Cosmos 1733 Rocket 4.2 23:48:41 10° NNW 23:52:27 29° W 23:53:07 28° WSW
SJ 16-02 3.9 23:53:29 10° W 23:56:28 17° NW 23:59:27 10° N
